"TOA5","AWS1","CR1000","7964","CR1000.Std.14","CPU:AWS1_114.CR1","64363","TBL110"
"TIMESTAMP","RECORD","Wind_spd_WVc(1)","Wind_spd_WVc(2)","Air_Temp_Avg","Humidity_Avg","SW_upper_Wm2_Avg","Rain_Tot","Press_Avg","Issui_Tot","Depth_cm","SR50A_Raw","Quality","Ground_Temp_Avg(1)","Ground_Temp_Avg(2)","SW_lower_Wm2_Avg","Albedo_Avg","SWC_per(1)","SWC_per(2)","Period(1)","Period(2)"
"TS","RN","","","","","","","","","","","","","","","","","","",""
"","","WVc","WVc","Avg","Avg","Avg","Tot","Avg","Tot","Smp","Smp","Smp","Avg","Avg","Avg","Avg","Smp","Smp","Smp","Smp"
"2018-07-01 00:00:00",347389,0.073,103,17.81,89.3,0.01965142,0,873.7442,0,30.71,2.786,259,19.03,17.8,0.7654873,0.482,50.94,58.38,33.53,35.31
"2018-07-01 00:10:00",347390,0.097,324.4,17.64,88.5,0,0,873.7042,0,-12.35,3.201,193,19.04,17.8,1.136862,0,50.88,58.38,33.52,35.31
"2018-07-01 00:20:00",347391,0.085,155.2,17.47,91,0,0,873.4746,0,18.53,2.905,202,19.09,17.8,1.07244,0,50.94,58.38,33.53,35.31
"2018-07-01 00:30:00",347392,0.261,190.1,17.13,96.3,0,0,873.4725,0,18.9,2.901,212,19.04,17.8,1.023176,0,50.88,58.32,33.52,35.29
"2018-07-01 00:40:00",347393,0.26,164,17.35,91.2,0,0,873.4725,0,26.84,2.821,370,18.95,17.8,1.504448,0,50.88,58.32,33.52,35.29
"2018-07-01 00:50:00",347394,0.293,51.53,17.84,85.5,0.007860567,0,873.4725,0,-14.13,3.219,203,18.93,17.8,1.917508,0.321,50.88,58.32,33.52,35.29
"2018-07-01 01:00:00",347395,0.226,99.8,17.92,85.1,0.208305,0,873.4746,0,-8.81,3.165,182,18.97,17.8,1.947824,1.365,50.88,58.32,33.52,35.29
"2018-07-01 01:10:00",347396,0.396,121.1,18,85.2,0.235817,0,873.4725,0,-11.78,3.195,170,18.99,17.79,1.837927,1.473,50.88,58.32,33.52,35.29
"2018-07-01 01:20:00",347397,0.364,2.707,18.02,85.9,0,0,873.4725,0,29.29,2.796,291,18.93,17.77,1.580239,0,50.88,58.32,33.52,35.29
"2018-07-01 01:30:00",347398,0.468,150.6,18.12,85.1,0,0,873.4725,0,-10.98,3.186,170,18.87,17.77,1.629503,0,50.88,58.26,33.52,35.28
"2018-07-01 01:40:00",347399,0.358,29.62,18.26,83.4,0,0,873.4725,0,-52.21,3.584,277,18.85,17.79,1.784874,0,50.83,58.26,33.5,35.28
"2018-07-01 01:50:00",347400,0.277,24.35,18.18,83.9,0,0,873.4725,0,28.96,2.799,371,18.91,17.82,1.549922,0,50.88,58.26,33.52,35.28
"2018-07-01 02:00:00",347401,0.402,9.91,18.12,84.5,0,0,873.4683,0,-11.49,3.191,182,18.93,17.83,1.462763,0,50.88,58.32,33.52,35.29
"2018-07-01 02:10:00",347402,0.371,346.7,17.95,86,0,0,873.4662,0,29.42,2.796,261,18.86,17.83,1.288444,0,50.83,58.26,33.5,35.28
"2018-07-01 02:20:00",347403,0.197,1.929,17.75,88,0,0,873.4725,0,-12.38,3.202,181,18.81,17.84,1.011807,0,50.83,58.26,33.5,35.28
"2018-07-01 02:30:00",347404,0.025,152.4,17.31,96.7,0,0,873.4767,0,29.13,2.802,355,18.81,17.85,0.4736926,0,50.83,58.26,33.5,35.28
"2018-07-01 02:40:00",347405,0.06,178,17.13,99.7,0,0,873.4725,0,29.43,2.801,289,18.84,17.85,0.4699031,0,50.83,58.26,33.5,35.28
"2018-07-01 02:50:00",347406,0.089,196.5,16.76,100,0,0,873.4746,0,29.44,2.8,278,18.79,17.86,0.322111,0,50.83,58.26,33.5,35.28
"2018-07-01 03:00:00",347407,0.064,171.5,16.53,100,0,0,873.5041,0,29.12,2.805,292,18.69,17.85,0.3259005,0,50.83,58.26,33.5,35.28
"2018-07-01 03:10:00",347408,0.087,160.1,16.29,100,0,0,873.6557,0,29.75,2.801,241,18.72,17.86,0.272847,0,50.83,58.26,33.5,35.28
"2018-07-01 03:20:00",347409,0.315,197,16.02,100,0,0,873.4872,0,28.68,2.811,363,18.73,17.84,0.280426,0,50.83,58.21,33.5,35.26
"2018-07-01 03:30:00",347410,0.144,200.5,16.42,100,0,0,873.5715,0,29.09,2.807,283,18.75,17.81,0.9473852,0,50.83,58.21,33.5,35.26
"2018-07-01 03:40:00",347411,0.078,189.8,16.54,99.8,0,0,873.8032,0,-9.65,3.182,177,18.66,17.81,1.182337,0,50.83,58.21,33.5,35.26
"2018-07-01 03:50:00",347412,0.059,162.3,16.31,100,0,0,873.858,0,-52,3.594,322,18.61,17.81,0.7162232,0,50.83,58.21,33.5,35.26
"2018-07-01 04:00:00",347413,0.111,50.1,16.74,98.1,0,0,873.7274,0,29.3,2.801,288,18.66,17.81,1.40592,0,50.83,58.21,33.5,35.26
"2018-07-01 04:10:00",347414,0.096,290.4,17.07,92.4,0,0,873.6726,0,29.62,2.797,295,18.64,17.8,1.4855,0,50.83,58.15,33.5,35.25
"2018-07-01 04:20:00",347415,0.201,304.4,17.64,85.6,0,0,873.6515,0,28.89,2.802,385,18.58,17.82,2.156249,0,50.77,58.15,33.49,35.25
"2018-07-01 04:30:00",347416,0.021,302,17.36,88.3,2.755129,0,873.6473,0,29.47,2.801,259,18.54,17.81,2.338147,1.072,50.83,58.15,33.5,35.25
"2018-07-01 04:40:00",347417,0.108,341.6,17.27,90.6,4.838179,0,873.7253,0,29.51,2.796,242,18.54,17.81,2.80805,0.573,50.77,58.15,33.49,35.25
"2018-07-01 04:50:00",347418,0.072,151.1,17.16,90.8,6.50855,0,873.7253,0,28.86,2.809,335,18.56,17.81,2.213092,0.371,50.83,58.15,33.5,35.25
"2018-07-01 05:00:00",347419,0.183,209.7,16.29,100,15.26129,0,873.7253,0,29.16,2.804,292,18.56,17.8,3.061949,0.199,50.77,58.09,33.49,35.24
"2018-07-01 05:10:00",347420,0.117,204.2,16.65,97.5,27.13075,0,873.898,0,29.17,2.806,253,18.46,17.8,4.979456,0.186,50.77,58.09,33.49,35.24
"2018-07-01 05:20:00",347421,0.188,113.2,16.76,99.3,39.9474,0,873.9696,0,20.29,2.891,227,18.46,17.8,6.779489,0.17,50.83,58.09,33.5,35.24
"2018-07-01 05:30:00",347422,0,0,16.55,100,52.43784,0,873.978,0,28.5,2.81,336,18.49,17.8,7.995932,0.152,50.77,58.09,33.49,35.24
"2018-07-01 05:40:00",347423,0.086,123.5,16.66,99.9,65.43529,0,873.9528,0,28.32,2.813,276,18.49,17.8,9.98923,0.153,50.83,58.09,33.5,35.24
"2018-07-01 05:50:00",347424,0.125,165.2,16.58,100,74.64394,0,874.0244,0,28.32,2.812,242,18.48,17.8,11.13746,0.149,50.83,58.03,33.5,35.22
"2018-07-01 06:00:00",347425,0.122,116,16.8,100,89.30783,0,874.1444,0,28.15,2.813,266,18.39,17.81,13.07771,0.147,50.77,58.09,33.49,35.24
"2018-07-01 06:10:00",347426,0.127,354.5,17.13,97.1,106.7779,0,874.1992,0,26.13,2.83,318,18.32,17.82,15.93881,0.149,50.83,58.03,33.5,35.22
"2018-07-01 06:20:00",347427,0.147,114.2,17.46,93,112.5712,0,874.0306,0,-10.12,3.181,170,18.32,17.77,17.50768,0.156,50.83,58.09,33.5,35.24
"2018-07-01 06:30:00",347428,0.127,49.23,17.78,85.4,122.3183,0,874.0959,0,27.11,2.818,410,18.34,17.76,19.28497,0.157,50.83,58.03,33.5,35.22
"2018-07-01 06:40:00",347429,0.114,7.696,18.05,82.7,144.0095,0,874.2286,0,29.27,2.795,265,18.36,17.77,22.66525,0.158,50.83,58.09,33.5,35.24
"2018-07-01 06:50:00",347430,0.137,122.1,18.31,82.8,119.6182,0,874.2307,0,29.31,2.795,293,18.36,17.75,20.2172,0.169,50.77,58.03,33.49,35.22
"2018-07-01 07:00:00",347431,0.205,93.9,18.17,85.7,133.8969,0,874.2307,0,21.34,2.873,227,18.34,17.75,24.10148,0.18,50.77,58.03,33.49,35.22
"2018-07-01 07:10:00",347432,0.209,60.52,18.38,85,136.0939,0,874.2328,0,21.06,2.874,231,18.31,17.77,31.10076,0.233,50.83,58.03,33.5,35.22
"2018-07-01 07:20:00",347433,0.21,9.23,18.65,82.8,138.6604,0,874.2581,0,21.83,2.864,268,18.28,17.77,34.26503,0.248,50.83,58.03,33.5,35.22
"2018-07-01 07:30:00",347434,0.193,32.38,19.16,81.3,161.4443,0,874.4119,0,21.92,2.861,241,18.26,17.77,38.78216,0.242,50.83,58.03,33.5,35.22
"2018-07-01 07:40:00",347435,0.147,20.77,19.46,80.5,147.366,0,874.4561,0,23.61,2.843,265,18.24,17.73,43.46983,0.302,50.77,57.97,33.49,35.21
"2018-07-01 07:50:00",347436,0.2,349,20.06,76.02,470.9501,0,874.2877,0,-15.34,3.216,183,18.21,17.75,47.22147,0.106,50.77,58.03,33.49,35.22
"2018-07-01 08:00:00",347437,0.391,33.72,20.5,74.4,593.4531,0,874.3698,0,28.77,2.789,364,18.2,17.76,70.17093,0.117,50.77,58.03,33.49,35.22
"2018-07-01 08:10:00",347438,0.489,28.09,20.67,74.6,658.0002,0,874.2687,0,20.8,2.865,257,18.29,17.75,87.04197,0.132,50.77,57.97,33.49,35.21
"2018-07-01 08:20:00",347439,0.381,7.608,20.72,74.71,726.3242,0,874.2307,0,-10.85,3.169,190,18.31,17.75,105.4895,0.145,50.83,57.97,33.5,35.21
"2018-07-01 08:30:00",347440,0.449,41.48,21.3,72.33,800.017,0,874.1968,0,-13.58,3.191,189,18.3,17.75,121.1213,0.151,50.77,57.97,33.49,35.21
"2018-07-01 08:40:00",347441,0.463,1.35,21.56,71.42,757.2438,0,873.9518,0,-14.25,3.198,169,18.27,17.75,112.466,0.148,50.83,57.97,33.5,35.21
"2018-07-01 08:50:00",347442,0.338,82.5,21.6,76.16,693.467,0,873.9395,0,31.37,2.758,372,18.24,17.72,101.014,0.142,50.77,57.97,33.49,35.21
"2018-07-01 09:00:00",347443,0.362,348.5,21.66,76.19,667.7001,0,873.9287,0,18.94,2.881,230,18.23,17.67,99.79378,0.146,50.77,57.91,33.49,35.2
"2018-07-01 09:10:00",347444,0.302,332.2,20.99,79.08,495.9507,0,873.9244,0,29.18,2.784,361,18.22,17.65,72.06191,0.141,50.77,57.91,33.49,35.2
"2018-07-01 09:20:00",347445,0.344,266.1,20.53,80.6,291.8275,0,873.9247,0,29.65,2.782,357,18.25,17.65,39.80534,0.136,50.77,57.91,33.49,35.2
"2018-07-01 09:30:00",347446,0.174,268.8,20.28,84,244.2553,0,873.9518,0,14.06,2.932,244,18.25,17.65,34.30293,0.14,50.72,57.91,33.47,35.2
"2018-07-01 09:40:00",347447,0.411,319.5,20.14,82,364.0975,0,874.0199,0,-16.22,3.225,188,18.3,17.63,55.11129,0.151,50.77,57.91,33.49,35.2
"2018-07-01 09:50:00",347448,0.378,345.6,20.19,82,508.9756,0,874.067,0,21.24,2.861,267,18.28,17.63,81.39176,0.156,50.77,57.86,33.49,35.18
"2018-07-01 10:00:00",347449,0.741,7.655,20.89,77.57,750.3343,0,873.9887,0,27.08,2.803,362,18.31,17.65,115.7894,0.153,50.72,57.86,33.47,35.18
"2018-07-01 10:10:00",347450,0.507,321.5,21.02,77,612.3735,0,873.9746,0,26.92,2.805,270,18.35,17.66,94.0564,0.151,50.72,57.86,33.47,35.18
"2018-07-01 10:20:00",347451,0.696,353.9,20.93,76.3,698.4664,0,873.9688,0,21.44,2.857,292,18.37,17.65,107.9299,0.15,50.66,57.86,33.46,35.18
"2018-07-01 10:30:00",347452,0.394,325.3,21.31,75.89,496.2219,0,873.9944,0,-13.54,3.193,192,18.37,17.65,73.5891,0.145,50.66,57.86,33.46,35.18
"2018-07-01 10:40:00",347453,0.357,307.4,21.12,75.39,415.7414,0,873.9719,0,20.67,2.865,216,18.41,17.63,61.887,0.146,50.66,57.8,33.46,35.17
"2018-07-01 10:50:00",347454,0.148,264.2,21.18,76.99,330.3678,0,873.9759,0,-18.11,3.238,190,18.44,17.59,47.46021,0.142,50.72,57.8,33.47,35.17
"2018-07-01 11:00:00",347455,0.186,9.57,21.19,76.28,447.2191,0,873.9706,0,-9.37,3.151,176,18.44,17.58,68.43532,0.147,50.66,57.8,33.46,35.17
"2018-07-01 11:10:00",347456,0.275,290.7,21.68,75.21,412.3182,0,873.7463,0,23.87,2.831,278,18.55,17.59,59.58295,0.142,50.66,57.8,33.46,35.17
"2018-07-01 11:20:00",347457,0.359,355.1,21.45,75.98,454.9146,0,873.7247,0,20.48,2.866,227,18.58,17.59,69.50397,0.148,50.66,57.74,33.46,35.16
"2018-07-01 11:30:00",347458,0.228,344.1,21.67,74.46,381.9882,0,873.5756,0,19.42,2.873,255,18.62,17.6,55.07719,0.143,50.66,57.74,33.46,35.16
"2018-07-01 11:40:00",347459,0.351,344.5,21.73,74.82,563.0642,0,873.4694,0,-14.04,3.194,193,18.65,17.59,85.799,0.15,50.61,57.74,33.45,35.16
"2018-07-01 11:50:00",347460,0.684,21.37,22.12,70.06,799.5926,0,873.4658,0,29.14,2.777,287,18.73,17.58,125.1572,0.153,50.61,57.74,33.45,35.16
"2018-07-01 12:00:00",347461,0.343,270.3,22.37,68.69,576.4507,0,873.4224,0,-10.81,3.162,178,18.71,17.6,84.06718,0.138,50.61,57.74,33.45,35.16
"2018-07-01 12:10:00",347462,0.241,258.8,22.3,69.11,748.1963,0,873.3353,0,-10.04,3.15,203,18.76,17.59,115.7894,0.149,50.55,57.74,33.43,35.16
"2018-07-01 12:20:00",347463,0.219,257.1,22.76,67.81,484.5254,0,873.2126,0,-10.38,3.156,196,18.78,17.6,67.32877,0.134,50.61,57.68,33.45,35.14
"2018-07-01 12:30:00",347464,0.388,332.2,22.54,68.34,496.8861,0,873.1452,0,28.54,2.782,329,18.86,17.58,70.62946,0.136,50.55,57.68,33.43,35.14
"2018-07-01 12:40:00",347465,0.299,291.4,22.33,70.74,381.5677,0,873.0838,0,19.57,2.869,216,18.87,17.59,51.78028,0.129,50.55,57.68,33.43,35.14
"2018-07-01 12:50:00",347466,0.295,89.5,22.55,69.78,464.811,0,872.9668,0,21.54,2.848,251,18.94,17.57,67.44625,0.141,50.55,57.68,33.43,35.14
"2018-07-01 13:00:00",347467,0.24,256.7,23.06,68.26,721.8241,0,872.9401,0,-11.07,3.159,223,19.01,17.59,110.8517,0.144,50.5,57.62,33.42,35.13
"2018-07-01 13:10:00",347468,0.307,23.23,22.98,69.78,558.568,0,872.7536,0,-10.08,3.149,195,19.05,17.59,81.78587,0.139,50.5,57.62,33.42,35.13
"2018-07-01 13:20:00",347469,0.39,54.98,23.04,68.88,413.792,0,872.7158,0,-11.71,3.167,190,19.06,17.58,57.98756,0.129,50.44,57.68,33.41,35.14
"2018-07-01 13:30:00",347470,0.329,50.88,23.04,70.16,471.3707,0,872.6887,0,-10.46,3.155,194,19.12,17.58,68.66648,0.14,50.44,57.68,33.41,35.14
"2018-07-01 13:40:00",347471,0.423,313,22.4,71.87,507.883,0,872.5396,0,-15.59,3.208,197,19.22,17.58,76.3403,0.141,50.44,57.68,33.41,35.14
"2018-07-01 13:50:00",347472,0.501,353.4,22.63,71.96,567.9534,0,872.7015,0,22.03,2.842,234,19.25,17.58,87.08744,0.147,50.44,57.62,33.41,35.13
"2018-07-01 14:00:00",347473,0.401,311.1,23.31,69.1,915.139,0,872.7003,0,27.19,2.79,361,19.29,17.64,145.9125,0.159,50.44,57.62,33.41,35.13
"2018-07-01 14:10:00",347474,0.357,308.7,23.36,69.74,731.5908,0,872.6293,0,-15.54,3.2,264,19.32,17.63,109.6238,0.147,50.44,57.62,33.41,35.13
"2018-07-01 14:20:00",347475,0.329,349.1,23.39,70.31,620.3953,0,872.477,0,-20.24,3.246,226,19.37,17.65,89.83107,0.138,50.39,57.62,33.39,35.13
"2018-07-01 14:30:00",347476,0.443,2.566,23.78,68.15,939.9548,0,872.4355,0,32.59,2.737,318,19.39,17.66,144.1238,0.153,50.39,57.56,33.39,35.12
"2018-07-01 14:40:00",347477,0.566,315.3,23.99,66.08,947.6581,0,872.4357,0,29.92,2.761,290,19.45,17.66,142.0509,0.15,50.39,57.56,33.39,35.12
"2018-07-01 14:50:00",347478,0.62,318.3,23.87,66.21,688.8508,0,872.4403,0,32.3,2.741,333,19.48,17.67,91.31577,0.129,50.33,57.56,33.38,35.12
"2018-07-01 15:00:00",347479,0.425,330.9,23.65,67.37,772.7715,0,872.4273,0,18.02,2.877,334,19.52,17.66,93.63471,0.121,50.33,57.51,33.38,35.1
"2018-07-01 15:10:00",347480,0.348,279.8,23.5,68.8,631.1454,0,872.2764,0,25.72,2.807,302,19.59,17.67,63.05007,0.099,50.28,57.51,33.37,35.1
"2018-07-01 15:20:00",347481,0.446,324.5,23.11,68.26,669.7037,0,872.1876,0,-15.29,3.199,177,19.65,17.67,58.16558,0.087,50.33,57.51,33.38,35.1
"2018-07-01 15:30:00",347482,0.308,63.6,23.6,67.49,545.083,0,872.1848,0,21.7,2.844,295,19.69,17.64,41.58641,0.077,50.28,57.51,33.37,35.1
"2018-07-01 15:40:00",347483,0.254,175.7,23.32,70.76,261.3992,0,872.1889,0,-8.35,3.134,182,19.76,17.6,36.0499,0.139,50.28,57.51,33.37,35.1
"2018-07-01 15:50:00",347484,0.253,246.2,22.9,72.38,193.3857,0,872.2006,0,-8.65,3.138,180,19.82,17.63,28.06913,0.145,50.22,57.45,33.35,35.09
"2018-07-01 16:00:00",347485,0.284,134.5,22.89,73.37,198.6444,0,872.3121,0,26.95,2.796,331,19.89,17.67,30.55507,0.152,50.22,57.45,33.35,35.09
"2018-07-01 16:10:00",347486,0.424,144.7,22.38,73.86,160.666,0,872.3684,0,-45.44,3.494,240,19.93,17.67,21.8846,0.137,50.22,57.45,33.35,35.09
"2018-07-01 16:20:00",347487,0.308,122.3,22.17,75.15,157.3293,0,872.4615,0,-8.82,3.142,184,20.02,17.68,22.01723,0.139,50.11,57.45,33.33,35.09
"2018-07-01 16:30:00",347488,0.497,158.6,21.94,76.84,155.3955,0,872.4363,0,29.01,2.782,364,20.04,17.67,22.66146,0.145,50.17,57.39,33.34,35.07
"2018-07-01 16:40:00",347489,0.583,123.7,21.55,75.99,94.55083,0,872.4359,0,21.63,2.853,304,20.11,17.67,11.27388,0.119,50.17,57.39,33.34,35.07
"2018-07-01 16:50:00",347490,0.436,88.2,21.71,72.85,85.22034,0,872.4568,0,21.48,2.854,268,20.19,17.7,11.1223,0.13,50.17,57.39,33.34,35.07
"2018-07-01 17:00:00",347491,0.172,128.2,21.57,74.26,117.3897,0,872.4614,0,22.3,2.847,285,20.15,17.72,17.0643,0.145,50.17,57.39,33.34,35.07
"2018-07-01 17:10:00",347492,0.189,94.6,21.64,76.6,123.0454,0,872.4615,0,25.39,2.817,343,20.17,17.8,17.79947,0.143,50.11,57.39,33.33,35.07
"2018-07-01 17:20:00",347493,0.111,149.2,21.21,79.3,78.87292,0,872.4615,0,21.79,2.854,300,20.25,17.85,9.401852,0.119,50.11,57.39,33.33,35.07
"2018-07-01 17:30:00",347494,0.182,123.6,21.18,78.39,94.49581,0,872.4615,0,20.71,2.864,261,20.28,17.85,13.5514,0.142,50.11,57.33,33.33,35.06
"2018-07-01 17:40:00",347495,0.135,172.2,21.24,78.35,101.2559,0,872.4615,0,22.82,2.843,315,20.27,17.84,15.10132,0.148,50.06,57.33,33.31,35.06
"2018-07-01 17:50:00",347496,0.131,88.6,21.23,78.77,56.97339,0,872.4636,0,20.81,2.863,283,20.24,17.85,6.999282,0.121,50.11,57.33,33.33,35.06
"2018-07-01 18:00:00",347497,0.002,244.9,20.86,80.9,47.55643,0,872.4931,0,22.71,2.847,283,20.25,17.87,5.430412,0.112,50.06,57.33,33.31,35.06
"2018-07-01 18:10:00",347498,0.073,283.8,20.47,82.2,40.94569,0,872.6532,0,19.91,2.876,372,20.24,17.91,4.907455,0.116,50.11,57.33,33.33,35.06
"2018-07-01 18:20:00",347499,0.166,181.1,20.24,83.9,22.82316,0,872.7142,0,28.95,2.79,314,20.26,17.96,2.076669,0.09,50.06,57.33,33.31,35.06
"2018-07-01 18:30:00",347500,0.053,256.6,19.94,84.6,20.65757,0,872.7142,0,29.08,2.79,419,20.28,17.98,1.970561,0.095,50.06,57.27,33.31,35.05
"2018-07-01 18:40:00",347501,0.002,37.02,19.81,85.3,20.35494,0,872.7438,0,-9.81,3.165,180,20.28,17.97,2.451833,0.119,50.06,57.33,33.31,35.06
"2018-07-01 18:50:00",347502,0,0,19.74,86.4,22.7642,0,872.9144,0,30.92,2.773,297,20.28,17.97,3.448482,0.15,50.06,57.33,33.31,35.06
"2018-07-01 19:00:00",347503,0.006,304.8,19.59,86.4,11.9009,0,872.967,0,5.547,3.019,422,20.28,17.97,1.481711,0.12,50.06,57.27,33.31,35.05
"2018-07-01 19:10:00",347504,0.019,215.8,19.4,89.9,2.35817,0,872.967,0,-11.04,3.18,183,20.28,17.98,0.04168495,0.008,50.06,57.33,33.31,35.06
"2018-07-01 19:20:00",347505,0,0,19.19,92.6,0,0,873.165,0,31.07,2.774,310,20.31,18.05,0,0,50.06,57.27,33.31,35.05
"2018-07-01 19:30:00",347506,0,0,19.08,94.8,0,0,873.2197,0,4.642,3.03,213,20.31,18.15,0,0,50.01,57.27,33.3,35.05
"2018-07-01 19:40:00",347507,0.001,273.4,19.09,96.9,0,0,873.2197,0,5.423,3.022,236,20.32,18.11,0,0,50.06,57.27,33.31,35.05
"2018-07-01 19:50:00",347508,0.02,296.4,19.01,94.5,0,0.5,873.2197,0,-10.88,3.181,174,20.32,18.06,0,0,50.01,57.27,33.3,35.05
"2018-07-01 20:00:00",347509,0.025,301.1,18.82,98.8,0,0,873.3651,0,29.1,2.795,304,20.32,18.06,0,0,50.01,57.27,33.3,35.05
"2018-07-01 20:10:00",347510,0,0,18.69,100,0,0,873.4725,0,-13.51,3.207,168,20.24,18.11,0,0,50.01,57.22,33.3,35.03
"2018-07-01 20:20:00",347511,0.035,66.55,18.57,100,0,0,873.4725,0,19.32,2.89,266,20.21,18.14,0,0,50.01,57.22,33.3,35.03
"2018-07-01 20:30:00",347512,0,0,18.62,100,0,0,873.6389,0,29.53,2.791,297,20.23,18.2,0.1705294,0,50.01,57.22,33.3,35.03
"2018-07-01 20:40:00",347513,0.034,74.72,18.45,100,0,0,873.721,0,31.23,2.777,318,20.24,18.23,0,0,50.01,57.22,33.3,35.03
"2018-07-01 20:50:00",347514,0.075,193.6,18.18,100,0,0,873.7253,0,17.5,2.91,280,20.28,18.23,0,0,50.01,57.22,33.3,35.03
"2018-07-01 21:00:00",347515,0.042,181.8,18.03,100,0,0,873.8558,0,30.41,2.786,317,20.3,18.22,0,0,50.01,57.22,33.3,35.03
"2018-07-01 21:10:00",347516,0,0,17.88,100,0,0,873.879,0,17.66,2.91,305,20.18,18.18,0.1629503,0,50.01,57.22,33.3,35.03
"2018-07-01 21:20:00",347517,0,0,17.82,100,0,0,873.9675,0,19.35,2.894,262,20.15,18.15,0.2273725,0,50.01,57.22,33.3,35.03
"2018-07-01 21:30:00",347518,0.004,180.2,17.72,100,0,0,873.978,0,17.3,2.915,252,20.2,18.21,0.1743189,0,50.01,57.22,33.3,35.03
"2018-07-01 21:40:00",347519,0.053,88.3,17.42,100,0,0,873.978,0,17.72,2.912,268,20.19,18.23,0.1364235,0,50.01,57.22,33.3,35.03
"2018-07-01 21:50:00",347520,0.122,305.1,17.31,100,0,0,873.978,0,28.92,2.804,311,20.06,18.23,0.2652679,0,49.95,57.16,33.28,35.02
"2018-07-01 22:00:00",347521,0.032,191.3,17.06,100,0,0,873.9633,0,28.21,2.812,291,20.08,18.26,0.181898,0,50.01,57.16,33.3,35.02
"2018-07-01 22:10:00",347522,0.079,182,17.13,100,0,0,873.8917,0,-12.34,3.205,183,20.13,18.31,0.5040089,0,50.01,57.16,33.3,35.02
"2018-07-01 22:20:00",347523,0.002,147.8,16.86,100,0,0,873.8032,0,-14.77,3.23,192,20.02,18.32,0.2197934,0,49.95,57.16,33.28,35.02
"2018-07-01 22:30:00",347524,0.012,147.3,16.79,100,0,0,873.7295,0,28.22,2.814,240,19.98,18.32,0.2880051,0,50.01,57.16,33.3,35.02
"2018-07-01 22:40:00",347525,0,0,16.44,100,0,0,873.7189,0,-11.94,3.203,178,20.01,18.31,0.181898,0,50.01,57.1,33.3,35.01
"2018-07-01 22:50:00",347526,0.039,170.4,16.68,100,0,0,873.7147,0,27.62,2.82,277,19.93,18.29,0.6176952,0,50.01,57.1,33.3,35.01
"2018-07-01 23:00:00",347527,0.063,176.3,16.41,100,0,0,873.7147,0,-22.24,3.305,193,19.91,18.29,0.3979018,0,50.01,57.1,33.3,35.01
"2018-07-01 23:10:00",347528,0.007,174.9,16.39,100,0,0,873.4957,0,18.77,2.906,259,19.94,18.31,0.4661135,0,49.95,57.1,33.28,35.01
"2018-07-01 23:20:00",347529,0.037,145,16.38,100,0,0,873.4725,0,-13.03,3.217,184,19.83,18.31,0.4547449,0,50.01,57.1,33.3,35.01
"2018-07-01 23:30:00",347530,0.053,186,16.16,100,0,0,873.4725,0,-15.2,3.238,179,19.86,18.32,0.3903227,0,50.01,57.1,33.3,35.01
"2018-07-01 23:40:00",347531,0.158,191.6,16.07,100,0,0,873.4009,0,318,0,0,19.86,18.32,0.2880051,0,49.95,57.1,33.28,35.01
"2018-07-01 23:50:00",347532,0.043,187.8,16.06,100,0,0,873.4325,0,26.62,2.831,330,19.75,18.32,0.4926403,0,49.95,57.04,33.28,34.99
